COSMOS 2456 (730)

Last updated on Mon Sep 21 2026 00:03:22 GMT+0000 (Coordinated Universal Time)

1 36111U 09070A 26262.64742230 .00000028 00000+0 00000+0 0 9992 2 36111 65.0719 67.7525 0001438 346.3798 16.9615 2.13103735130445
UTC large
Height (km)
Speed (km/s)
/
Latitude / Longitude
Inclination (degrees)
Orbital Period (minutes)
Azimuth
Elevation
Range (km)
Doppler Factor

Next 0 passes for location: London (51.5072 / 0.1276)

No passes found over London.
COSMOS 2456 (730)